Regional Weather Roundup
Issued by NWS Little Rock, AR

Home | Current Version | Previous Version | Graphics & Text | Print | Product List | Glossary On
Versions: 1 2 3 4 5 6 7 8 9 10 11 12 13 14 15 16 17 18 19 20 21 22 23 24 25 26 27
000
ASUS44 KLZK 200605
RWRLZK

WEATHER ROUNDUP FOR ARKANSAS
NATIONAL WEATHER SERVICE LITTLE ROCK AR
100 AM CDT SUN APR 20 2014

NOTE: "FAIR" INDICATES FEW OR NO CLOUDS BELOW 12,000 FEET WITH NO
SIGNIFICANT WEATHER AND/OR OBSTRUCTIONS TO VISIBILITY.

ARZ001-003-010-029-200700-
NORTHWEST ARKANSAS

CITY           SKY/WX    TMP DP  RH WIND       PRES   REMARKS
FAYETTEVILLE   FAIR      51  48  89 CALM      30.17R
6HR MIN TEMP:  50; 6HR MAX TEMP:  70;

FORT SMITH     FAIR      62  51  67 CALM      30.15R
6HR MIN TEMP:  61; 6HR MAX TEMP:  79;

HARRISON       FAIR      57  47  69 SE7       30.17R
6HR MIN TEMP:  57; 6HR MAX TEMP:  73;

BENTONVILLE    FAIR      57  46  67 SE7       30.16S
6HR MIN TEMP:  57; 6HR MAX TEMP:  73;

ROGERS         FAIR      62  47  57 SE8       30.17R
6HR MIN TEMP:  61; 6HR MAX TEMP:  73;

SILOAM SPGS    FAIR      57  45  62 S7        30.17R
6HR MIN TEMP:  57; 6HR MAX TEMP:  72;

HIGHFILL       FAIR      57  48  72 SE5       30.15R
6HR MIN TEMP:  56; 6HR MAX TEMP:  72;

$$

ARZ004-005-016-200700-
NORTH CENTRAL ARKANSAS

CITY           SKY/WX    TMP DP  RH WIND       PRES   REMARKS
BATESVILLE     FAIR      55  46  71 CALM      30.15S
6HR MIN TEMP:  55; 6HR MAX TEMP:  73;

FLIPPIN        FAIR      59  41  51 CALM      30.16S
6HR MIN TEMP:  55; 6HR MAX TEMP:  75;

MTN HOME       FAIR      60  42  51 SE3       30.15S
6HR MIN TEMP:  60; 6HR MAX TEMP:  74;

$$

ARZ040-041-200700-
WEST CENTRAL ARKANSAS

CITY           SKY/WX    TMP DP  RH WIND       PRES   REMARKS
MENA           FAIR      54  54 100 CALM      30.17R
MOUNT IDA      FAIR      53  52  96 CALM      30.14S
6HR MIN TEMP:  53; 6HR MAX TEMP:  74;

$$

ARZ009-017-025-026-028-200700-
NORTHEAST ARKANSAS

CITY           SKY/WX    TMP DP  RH WIND       PRES   REMARKS
CORNING        FAIR      54  52  94 N3        30.17S
JONESBORO      FAIR      53  46  77 CALM      30.15F
6HR MIN TEMP:  52; 6HR MAX TEMP:  72;

NEWPORT        FAIR      59  51  74 VRB5      30.16F
6HR MIN TEMP:  58; 6HR MAX TEMP:  74;

WALNUT RIDGE   FAIR      57  50  77 N3        30.16S
6HR MIN TEMP:  55; 6HR MAX TEMP:  72;

BLYTHEVILLE    FAIR      56  50  80 NE5       30.15F
6HR MIN TEMP:  56; 6HR MAX TEMP:  73;

$$

ARZ022-023-033-042-044-200700-
CENTRAL ARKANSAS

CITY           SKY/WX    TMP DP  RH WIND       PRES   REMARKS
LITTLE ROCK    FAIR      57  50  77 CALM      30.15S
6HR MIN TEMP:  57; 6HR MAX TEMP:  73;

N LITTLE ROCK    N/A     65  51  60 SE7       30.15S
6HR MIN TEMP:  64; 6HR MAX TEMP:  73;

JACKSONVILLE   FAIR      53  49  86 NW1       30.16R
6HR MIN TEMP:  53; 6HR MAX TEMP:  74;

SEARCY         FAIR      52  50  93 CALM      30.16S
6HR MIN TEMP:  52; 6HR MAX TEMP:  74; 6HR PCP: TRACE;

HOT SPRINGS    FAIR      57  51  80 CALM      30.16S
6HR MIN TEMP:  57; 6HR MAX TEMP:  75;

RUSSELLVILLE   FAIR      55  51  86 CALM      30.15R
6HR MIN TEMP:  55; 6HR MAX TEMP:  76;

CLINTON        FAIR      52  50  93 CALM      30.18S
$$

ARZ036-200700-
EAST ARKANSAS

CITY           SKY/WX    TMP DP  RH WIND       PRES   REMARKS
WEST MEMPHIS   FAIR      55  50  83 CALM      30.14S HAZE
6HR MIN TEMP:  55; 6HR MAX TEMP:  74;

$$

ARZ050-053-066-070-073-200700-
SOUTHWEST ARKANSAS

CITY           SKY/WX    TMP DP  RH WIND       PRES   REMARKS
ARKADELPHIA    FAIR      56  56 100 CALM      30.17R
6HR MIN TEMP:  56; 6HR MAX TEMP:  77;

CAMDEN         FAIR      54  52  94 MISG      30.15S FOG
TEXARKANA      FAIR      60  51  72 SE5       30.16R
6HR MIN TEMP:  55; 6HR MAX TEMP:  70;

EL DORADO      FAIR      55  53  93 CALM      30.15S
6HR MIN TEMP:  54; 6HR MAX TEMP:  72;

DE QUEEN       FAIR      52  51  97 CALM      30.14R FOG
6HR MIN TEMP:  52; 6HR MAX TEMP:  73;

$$

ARZ056-057-069-200700-
SOUTHEAST ARKANSAS

CITY           SKY/WX    TMP DP  RH WIND       PRES   REMARKS
PINE BLUFF     FAIR      57  53  86 CALM      30.15S
6HR MIN TEMP:  57; 6HR MAX TEMP:  73;

STUTTGART      FAIR      61  52  72 CALM      30.16S
6HR MIN TEMP:  61; 6HR MAX TEMP:  75;

MONTICELLO     FAIR      56  52  86 CALM      30.14S
6HR MIN TEMP:  55; 6HR MAX TEMP:  74; 6HR PCP: TRACE;


$$





USA.gov is the U.S. government's official web portal to all federal, state and local government web resources and services.